| time (UTC) | temp F | wind direction | speed MPH | gust MPH | rain 1hr in | rain 24hr in | rain mn in | humidity % | barometer mb |
| 20260505054517 | 56 | 338 | 1.0 | 2.0 | 0.00 | 0.00 | 0.00 | 88 | 1007.7 |
| 20260505053024 | 56 | 338 | 0.0 | 1.0 | 0.00 | 0.00 | 0.00 | 88 | 1007.7 |
| 20260505051529 | 56 | 338 | 0.0 | 1.0 | 0.00 | 0.00 | 0.00 | 88 | 1007.7 |
| 20260505041516 | 56 | 338 | 0.0 | 2.0 | 0.00 | 0.00 | 0.00 | 86 | 1007.7 |
| 20260505040011 | 57 | 338 | 1.0 | 3.0 | 0.00 | 0.00 | 0.00 | 85 | 1007.6 |
| 20260505034509 | 57 | 338 | 0.0 | 0.0 | 0.00 | 0.00 | 0.00 | 85 | 1007.7 |
| 20260505033011 | 57 | 338 | 0.0 | 1.0 | 0.00 | 0.00 | 0.00 | 85 | 1007.8 |
| 20260505031507 | 57 | 338 | 1.0 | 2.0 | 0.00 | 0.00 | 0.00 | 85 | 1007.8 |
| 20260505030018 | 57 | 338 | 0.0 | 2.0 | 0.00 | 0.00 | 0.00 | 85 | 1008.0 |
| 20260505024503 | 57 | 338 | 1.0 | 3.0 | 0.00 | 0.00 | 0.00 | 84 | 1008.1 |
| 20260505023002 | 57 | 338 | 0.0 | 2.0 | 0.00 | 0.00 | 0.00 | 84 | 1008.2 |
| 20260505021502 | 57 | 338 | 1.0 | 4.0 | 0.00 | 0.00 | 0.00 | 84 | 1008.2 |
| 20260505020105 | 57 | 338 | 2.0 | 3.0 | 0.00 | 0.00 | 0.00 | 83 | 1008.3 |
| 20260505014600 | 58 | 288 | 1.0 | 3.0 | 0.00 | 0.00 | 0.00 | 83 | 1008.4 |
| 20260505013058 | 58 | 288 | 1.0 | 3.0 | 0.00 | 0.00 | 0.00 | 82 | 1008.5 |
| 20260505011558 | 58 | 288 | 1.0 | 5.0 | 0.00 | 0.00 | 0.00 | 82 | 1008.6 |
| 20260505010103 | 58 | 278 | 5.0 | 9.0 | 0.00 | 0.00 | 0.00 | 83 | 1008.7 |
| 20260505004554 | 57 | 325 | 0.0 | 0.0 | 0.00 | 0.00 | 0.00 | 84 | 1008.5 |
| 20260505003056 | 57 | 325 | 0.0 | 0.0 | 0.00 | 0.00 | 0.00 | 83 | 1008.6 |
| 20260505001552 | 57 | 325 | 0.0 | 0.0 | 0.00 | 0.00 | 0.00 | 83 | 1008.8 |
| 20260505000058 | 57 | 325 | 0.0 | 0.0 | 0.00 | 0.00 | 0.00 | 83 | 1009.1 |
| 20260504234548 | 57 | 325 | 0.0 | 0.0 | 0.00 | 0.00 | 0.00 | 82 | 1008.9 |
| 20260504233049 | 58 | 325 | 0.0 | 0.0 | 0.00 | 0.00 | 0.00 | 81 | 1009.0 |
| 20260504231543 | 58 | 325 | 0.0 | 0.0 | 0.00 | 0.00 | 0.00 | 80 | 1009.3 |
| 20260504230042 | 58 | 325 | 0.0 | 0.0 | 0.00 | 0.00 | 0.00 | 80 | 1009.4 |
| 20260504224641 | 58 | 325 | 0.0 | 0.0 | 0.00 | 0.00 | 0.00 | 79 | 1009.6 |
| 20260504223037 | 60 | 325 | 0.0 | 0.0 | 0.00 | 0.00 | 0.00 | 76 | 1009.5 |
| 20260504221536 | 61 | 325 | 0.0 | 0.0 | 0.00 | 0.00 | 0.00 | 74 | 1009.4 |
| 20260504220032 | 61 | 325 | 0.0 | 0.0 | 0.00 | 0.00 | 0.00 | 74 | 1009.6 |
| 20260504214530 | 61 | 325 | 0.0 | 0.0 | 0.00 | 0.00 | 0.00 | 74 | 1009.5 |
| 20260504213030 | 62 | 325 | 0.0 | 0.0 | 0.00 | 0.00 | 0.00 | 72 | 1009.6 |
| 20260504211529 | 62 | 325 | 0.0 | 0.0 | 0.00 | 0.00 | 0.00 | 71 | 1009.6 |
| 20260504210030 | 63 | 325 | 0.0 | 0.0 | 0.00 | 0.00 | 0.00 | 71 | 1009.5 |
| 20260504204529 | 63 | 325 | 0.0 | 0.0 | 0.00 | 0.00 | 0.00 | 70 | 1009.7 |
| 20260504203025 | 64 | 325 | 0.0 | 0.0 | 0.00 | 0.00 | 0.00 | 68 | 1009.7 |
| 20260504201523 | 64 | 325 | 0.0 | 0.0 | 0.00 | 0.00 | 0.00 | 67 | 1009.7 |
| 20260504200036 | 65 | 325 | 0.0 | 0.0 | 0.00 | 0.00 | 0.00 | 65 | 1009.6 |
| 20260504194523 | 65 | 325 | 0.0 | 0.0 | 0.00 | 0.00 | 0.00 | 65 | 1009.6 |
| 20260504193022 | 65 | 325 | 0.0 | 0.0 | 0.00 | 0.00 | 0.00 | 63 | 1009.5 |
| 20260504191536 | 66 | 325 | 1.0 | 2.0 | 0.00 | 0.00 | 0.00 | 62 | 1009.4 |
| 20260504190022 | 66 | 325 | 1.0 | 3.0 | 0.00 | 0.00 | 0.00 | 61 | 1009.3 |
| 20260504184520 | 67 | 325 | 2.0 | 3.0 | 0.00 | 0.00 | 0.00 | 59 | 1009.3 |
| 20260504183034 | 68 | 325 | 0.0 | 2.0 | 0.00 | 0.00 | 0.00 | 58 | 1009.2 |
| 20260504181525 | 69 | 325 | 1.0 | 3.0 | 0.00 | 0.00 | 0.00 | 56 | 1009.2 |
| 20260504180021 | 70 | 304 | 0.0 | 0.0 | 0.00 | 0.00 | 0.00 | 53 | 1009.1 |
| 20260504174520 | 71 | 304 | 0.0 | 0.0 | 0.00 | 0.00 | 0.00 | 51 | 1009.0 |
| 20260504173017 | 71 | 304 | 0.0 | 0.0 | 0.00 | 0.00 | 0.00 | 51 | 1009.1 |
| 20260504171517 | 71 | 304 | 0.0 | 3.0 | 0.00 | 0.00 | 0.00 | 50 | 1009.1 |
| 20260504081520 | 66 | 182 | 2.0 | 8.0 | 0.00 | 0.00 | 0.00 | 60 | 1011.1 |